GW6191 Weather Reports


time (UTC)temp
C
wind
direction
speed
KPH
gust
KPH
rain 1hr
cm
rain 24hr
cm
rain mn
cm
humidity
%
barometer
mb
20260506035003 16 330 11.3 20.9 0.00 0.00 0.00 77 1010.1
20260506034504 16 30 8.0 24.1 0.00 0.00 0.00 77 1009.9
20260506034004 16 335 12.9 24.1 0.00 0.00 0.00 77 1009.9
20260506033504 17 360 6.4 17.7 0.00 0.00 0.00 77 1009.8
20260506033008 17 20 6.4 16.1 0.00 0.00 0.00 76 1009.7
20260506032503 17 323 8.0 20.9 0.00 0.00 0.00 77 1009.5
20260506032007 17 360 9.7 24.1 0.00 0.00 0.00 76 1009.3
20260506031523 17 38 11.3 24.1 0.00 0.00 0.00 75 1009.3
20260506031003 17 11 11.3 24.1 0.00 0.00 0.00 75 1009.4
20260506030504 17 348 11.3 24.1 0.00 0.00 0.00 75 1009.1
20260506030022 18 9 12.9 24.1 0.00 0.00 0.00 75 1009.2
20260506025508 18 346 8.0 19.3 0.00 0.00 0.00 75 1009.0
20260506025006 18 35 8.0 17.7 0.00 0.00 0.00 74 1009.0
20260506024505 18 18 6.4 17.7 0.00 0.00 0.00 74 1008.9
20260506024004 18 321 6.4 19.3 0.00 0.00 0.00 74 1008.7
20260506023505 18 31 8.0 19.3 0.00 0.00 0.00 74 1008.6
20260506023009 18 352 11.3 19.3 0.00 0.00 0.00 74 1008.6
20260506022505 18 352 6.4 19.3 0.00 0.00 0.00 73 1008.5
20260506022006 18 352 9.7 19.3 0.00 0.00 0.00 73 1008.5
20260506021507 18 27 12.9 19.3 0.00 0.00 0.00 73 1008.3
20260506021008 18 9 9.7 17.7 0.00 0.00 0.00 72 1008.2
20260506020510 18 339 8.0 17.7 0.00 0.00 0.00 72 1008.1
20260506020021 18 336 8.0 20.9 0.00 0.00 0.00 72 1007.8
20260506015504 18 352 11.3 20.9 0.00 0.00 0.00 72 1007.9
20260506015005 19 24 4.8 16.1 0.00 0.00 0.00 72 1007.9
20260506014525 19 337 6.4 16.1 0.00 0.00 0.00 72 1007.6
20260506014003 19 336 8.0 16.1 0.00 0.00 0.00 71 1007.4
20260506013503 19 352 8.0 16.1 0.00 0.00 0.00 70 1007.3
20260506013007 19 352 9.7 17.7 0.00 0.00 0.00 70 1007.4
20260506012506 19 31 6.4 17.7 0.00 0.00 0.00 71 1007.4
20260506012008 20 342 8.0 16.1 0.00 0.00 0.00 71 1007.2
20260506011511 20 32 6.4 12.9 0.00 0.00 0.00 71 1007.0
20260506011007 20 24 4.8 16.1 0.00 0.00 0.00 71 1007.1
20260506010502 20 346 6.4 16.1 0.00 0.00 0.00 70 1006.8
20260506010015 20 17 8.0 22.5 0.00 0.00 0.00 70 1006.7
20260506005506 21 325 9.7 24.1 0.00 0.00 0.00 70 1006.4
20260506005015 21 348 9.7 24.1 0.00 0.00 0.00 70 1006.3
20260506004513 21 46 11.3 20.9 0.00 0.00 0.00 70 1006.6
20260506004006 21 343 8.0 17.7 0.00 0.00 0.00 71 1006.6
20260506003513 21 360 8.0 24.1 0.00 0.00 0.00 70 1006.2
20260506003004 21 11 9.7 24.1 0.00 0.00 0.00 69 1005.8
20260506002502 21 344 16.1 24.1 0.00 0.00 0.00 69 1005.8
20260506002007 21 350 17.7 24.1 0.00 0.00 0.00 68 1005.9
20260506001506 22 350 12.9 24.1 0.00 0.00 0.00 68 1006.0
20260506001004 22 319 14.5 24.1 0.00 0.00 0.00 68 1006.0
20260506000507 22 328 11.3 22.5 0.00 0.00 0.00 68 1006.0
20260506000018 22 9 11.3 24.1 0.00 0.00 0.00 68 1005.9
20260505235514 22 337 14.5 24.1 0.00 0.00 0.00 66 1005.9
20260505235004 23 316 12.9 22.5 0.00 0.00 0.00 66 1005.9
20260505234519 23 360 11.3 20.9 0.00 0.00 0.00 66 1005.8
20260505234009 23 340 12.9 20.9 0.00 0.00 0.00 66 1005.9
20260505233506 23 343 9.7 22.5 0.00 0.00 0.00 65 1005.8
20260505233015 23 325 11.3 22.5 0.00 0.00 0.00 65 1005.7
20260505232506 23 331 12.9 20.9 0.00 0.00 0.00 64 1005.7
20260505232012 23 332 14.5 20.9 0.00 0.00 0.00 64 1005.5
20260505231507 24 326 14.5 22.5 0.00 0.00 0.00 65 1005.8
20260505231004 24 326 16.1 25.7 0.00 0.00 0.00 65 1005.7
20260505230509 24 331 17.7 25.7 0.00 0.00 0.00 63 1005.5
20260505230009 25 352 16.1 25.7 0.00 0.00 0.00 63 1005.4
20260505225507 25 319 17.7 25.7 0.00 0.00 0.00 63 1005.4
20260505225006 25 327 14.5 24.1 0.00 0.00 0.00 64 1005.5
20260505224531 25 317 14.5 20.9 0.00 0.00 0.00 63 1005.4
20260505224012 25 321 14.5 22.5 0.00 0.00 0.00 64 1005.1
20260505223514 25 308 11.3 22.5 0.00 0.00 0.00 63 1004.9
20260505223031 25 325 14.5 20.9 0.00 0.00 0.00 65 1004.9
20260505222502 25 316 16.1 25.7 0.00 0.00 0.00 63 1005.1
20260505222010 26 319 19.3 25.7 0.00 0.00 0.00 62 1005.1
20260505221522 26 316 16.1 25.7 0.00 0.00 0.00 61 1004.9
20260505221009 27 346 16.1 27.4 0.00 0.00 0.00 61 1004.8
20260505220505 27 327 17.7 27.4 0.00 0.00 0.00 60 1004.9
20260505220020 28 351 14.5 22.5 0.00 0.00 0.00 57 1004.8
20260505215510 28 331 16.1 20.9 0.00 0.00 0.00 56 1004.7
20260505215009 28 331 12.9 20.9 0.00 0.00 0.00 54 1004.6
20260505214519 28 314 16.1 22.5 0.00 0.00 0.00 52 1004.6
20260505214008 28 319 16.1 22.5 0.00 0.00 0.00 50 1004.8
20260505213507 29 320 16.1 22.5 0.00 0.00 0.00 49 1005.0
20260505213011 29 317 16.1 22.5 0.00 0.00 0.00 48 1004.9
20260505212507 29 9 14.5 20.9 0.00 0.00 0.00 50 1004.7
20260505212012 28 334 16.1 24.1 0.00 0.00 0.00 49 1004.6
20260505211525 29 339 16.1 24.1 0.00 0.00 0.00 49 1004.7
20260505211009 29 344 16.1 22.5 0.00 0.00 0.00 51 1004.8
20260505210510 30 329 16.1 24.1 0.00 0.00 0.00 53 1004.9
20260505210030 30 333 16.1 30.6 0.00 0.00 0.00 51 1005.0
20260505205507 30 327 19.3 30.6 0.00 0.00 0.00 47 1004.9
20260505205008 31 322 9.7 22.5 0.00 0.00 0.00 53 1004.9
20260505204520 31 254 12.9 20.9 0.00 0.00 0.00 53 1004.8
20260505204006 31 214 11.3 17.7 0.00 0.00 0.00 57 1004.9
20260505203507 31 218 9.7 17.7 0.00 0.00 0.00 54 1004.8
20260505203017 31 213 11.3 20.9 0.00 0.00 0.00 52 1004.9
20260505202508 31 235 12.9 20.9 0.00 0.00 0.00 55 1005.0
20260505202009 31 223 8.0 20.9 0.00 0.00 0.00 57 1004.9
20260505201518 30 207 9.7 20.9 0.00 0.00 0.00 57 1004.9
20260505201009 30 271 11.3 22.5 0.00 0.00 0.00 54 1005.1
20260505200512 30 212 11.3 29.0 0.00 0.00 0.00 54 1005.1
20260505200014 30 261 12.9 29.0 0.00 0.00 0.00 55 1005.1
20260505195511 30 254 16.1 24.1 0.00 0.00 0.00 56 1005.2
20260505195012 30 254 14.5 24.1 0.00 0.00 0.00 55 1005.2
20260505194512 30 236 11.3 25.7 0.00 0.00 0.00 58 1005.3
20260505194005 30 240 14.5 27.4 0.00 0.00 0.00 58 1005.3
20260505193507 30 257 12.9 27.4 0.00 0.00 0.00 58 1005.2
20260505193035 30 298 12.9 24.1 0.00 0.00 0.00 58 1005.2
20260505192507 30 241 14.5 24.1 0.00 0.00 0.00 59 1005.2
20260505192010 29 223 16.1 29.0 0.00 0.00 0.00 60 1005.3
20260505191522 29 230 16.1 29.0 0.00 0.00 0.00 61 1005.0
20260505191014 29 259 12.9 24.1 0.00 0.00 0.00 64 1005.1
20260505190507 29 234 12.9 25.7 0.00 0.00 0.00 63 1005.2
20260505190032 29 221 16.1 25.7 0.00 0.00 0.00 63 1005.1
20260505185513 29 224 9.7 20.9 0.00 0.00 0.00 66 1005.1
20260505185006 28 211 11.3 22.5 0.00 0.00 0.00 65 1005.1
20260505184525 28 216 14.5 22.5 0.00 0.00 0.00 64 1005.0
20260505184010 28 223 12.9 22.5 0.00 0.00 0.00 65 1005.2
20260505183511 28 199 9.7 25.7 0.00 0.00 0.00 67 1005.1
20260505183031 27 234 14.5 25.7 0.00 0.00 0.00 66 1005.3
20260505182505 27 238 14.5 22.5 0.00 0.00 0.00 66 1005.3
20260505182010 27 211 14.5 25.7 0.00 0.00 0.00 69 1005.4
20260505181517 27 210 14.5 25.7 0.00 0.00 0.00 68 1005.4
20260505181011 27 221 17.7 24.1 0.00 0.00 0.00 66 1005.4
20260505180511 27 202 16.1 33.8 0.00 0.00 0.00 67 1005.4
20260505180033 27 217 16.1 33.8 0.00 0.00 0.00 68 1005.4
20260505175507 27 192 17.7 27.4 0.00 0.00 0.00 67 1005.4
20260505175013 27 203 11.3 25.7 0.00 0.00 0.00 68 1005.5
20260505174531 27 199 14.5 33.8 0.00 0.00 0.00 69 1005.4
20260505174007 27 260 17.7 33.8 0.00 0.00 0.00 67 1005.3
20260505173509 27 201 16.1 30.6 0.00 0.00 0.00 68 1005.3
20260505173037 27 190 17.7 30.6 0.00 0.00 0.00 67 1005.2
20260505172511 27 227 16.1 30.6 0.00 0.00 0.00 69 1005.4
20260505172021 27 207 17.7 30.6 0.00 0.00 0.00 69 1005.2
20260505171527 27 198 19.3 27.4 0.00 0.00 0.00 69 1005.2
20260505171010 26 199 19.3 32.2 0.00 0.00 0.00 70 1005.3
20260505170514 26 220 17.7 33.8 0.00 0.00 0.00 70 1005.3
20260505170021 26 208 22.5 30.6 0.00 0.00 0.00 69 1005.2
20260505165506 26 209 16.1 32.2 0.00 0.00 0.00 71 1005.4
20260505165010 26 234 20.9 32.2 0.00 0.00 0.00 71 1005.3
20260505164530 26 214 17.7 25.7 0.00 0.00 0.00 74 1005.4
20260505164010 26 212 17.7 24.1 0.00 0.00 0.00 73 1005.4
20260505163510 25 221 16.1 27.4 0.00 0.00 0.00 74 1005.4
20260505163027 25 192 17.7 27.4 0.00 0.00 0.00 73 1005.4
20260505162509 25 215 17.7 27.4 0.00 0.00 0.00 74 1005.4
20260505162016 25 167 20.9 30.6 0.00 0.00 0.00 74 1005.3
20260505161528 25 234 20.9 33.8 0.00 0.00 0.00 74 1005.2
20260505161011 25 171 22.5 33.8 0.00 0.00 0.00 72 1005.2
20260505160506 26 231 14.5 22.5 0.00 0.00 0.00 74 1005.1
20260505153029 23 178 12.9 24.1 0.00 0.00 0.00 79 1005.0
20260505152510 23 227 11.3 29.0 0.00 0.00 0.00 79 1005.1
20260505152018 23 243 19.3 32.2 0.00 0.00 0.00 78 1005.0
20260505151521 23 191 12.9 32.2 0.00 0.00 0.00 79 1004.9
20260505151008 23 223 17.7 32.2 0.00 0.00 0.00 77 1004.9
20260505150517 23 210 17.7 29.0 0.00 0.00 0.00 78 1004.9
20260505140519 22 193 22.5 35.4 0.00 0.00 0.00 82 1004.6
20260505125013 20 211 14.5 25.7 0.00 0.00 0.00 86 1004.6
20260505124530 20 209 12.9 25.7 0.00 0.00 0.00 86 1004.6
20260505124011 20 198 14.5 29.0 0.00 0.00 0.00 87 1004.5
20260505123513 20 173 17.7 29.0 0.00 0.00 0.00 87 1004.2
20260505123039 20 204 16.1 27.4 0.00 0.00 0.00 87 1004.2
20260505122511 20 188 16.1 27.4 0.00 0.00 0.00 87 1004.2
20260505122010 20 224 16.1 27.4 0.00 0.00 0.00 87 1004.1
20260505121533 20 192 14.5 25.7 0.00 0.00 0.00 87 1004.0
20260505121010 20 188 14.5 25.7 0.00 0.00 0.00 87 1004.0
20260505120510 20 196 14.5 25.7 0.00 0.00 0.00 88 1004.0
20260505120036 20 202 16.1 24.1 0.00 0.00 0.00 88 1003.9
20260505115512 20 203 12.9 24.1 0.00 0.00 0.00 88 1003.9
20260505115011 20 207 16.1 24.1 0.00 0.00 0.00 88 1004.0
20260505114539 20 175 16.1 22.5 0.00 0.00 0.00 88 1003.9
20260505114010 20 197 14.5 27.4 0.00 0.00 0.00 88 1003.9
20260505113510 20 188 17.7 27.4 0.00 0.00 0.00 88 1003.9
20260505113028 20 160 11.3 19.3 0.00 0.00 0.00 88 1003.8
20260505112510 20 194 9.7 19.3 0.00 0.00 0.00 87 1003.8
20260505112011 20 179 14.5 25.7 0.00 0.00 0.00 88 1003.7
20260505111525 20 187 14.5 22.5 0.00 0.00 0.00 88 1003.7
20260505111011 20 213 12.9 22.5 0.00 0.00 0.00 87 1003.7
20260505110511 20 200 14.5 22.5 0.00 0.00 0.00 87 1003.7
20260505102009 20 189 12.9 24.1 0.00 0.00 0.00 87 1003.6
20260505101520 20 175 14.5 22.5 0.00 0.00 0.00 87 1003.6
20260505101006 20 194 14.5 25.7 0.00 0.00 0.00 86 1003.6
20260505100507 20 155 11.3 25.7 0.00 0.00 0.00 86 1003.6
20260505100028 20 171 16.1 24.1 0.00 0.00 0.00 86 1003.5
20260505095507 20 178 12.9 24.1 0.00 0.00 0.00 86 1003.6
20260505095004 20 208 12.9 27.4 0.00 0.00 0.00 86 1003.6
20260505094513 20 184 16.1 27.4 0.00 0.00 0.00 86 1003.7
20260505094005 20 198 12.9 30.6 0.00 0.00 0.00 86 1003.6
20260505093509 20 186 17.7 30.6 0.00 0.00 0.00 85 1003.5
20260505093015 20 194 11.3 29.0 0.00 0.00 0.00 85 1003.6
20260505092507 20 211 12.9 29.0 0.00 0.00 0.00 85 1003.7
20260505092013 20 166 14.5 27.4 0.00 0.00 0.00 85 1003.7
20260505091510 20 217 14.5 29.0 0.00 0.00 0.00 85 1003.7
20260505091009 20 185 16.1 29.0 0.00 0.00 0.00 84 1003.7
20260505090507 20 189 11.3 30.6 0.00 0.00 0.00 84 1003.8
20260505090037 21 188 12.9 30.6 0.00 0.00 0.00 84 1003.9
20260505085508 21 184 12.9 27.4 0.00 0.00 0.00 83 1004.0
20260505085009 21 160 12.9 29.0 0.00 0.00 0.00 83 1004.0
20260505084524 21 173 12.9 29.0 0.00 0.00 0.00 82 1004.0
20260505084012 21 200 12.9 30.6 0.00 0.00 0.00 82 1004.1
20260505083507 21 193 17.7 33.8 0.00 0.00 0.00 82 1004.1
20260505083013 21 167 17.7 37.0 0.00 0.00 0.00 81 1004.3
20260505082508 21 165 17.7 37.0 0.00 0.00 0.00 81 1004.3
20260505082006 21 196 16.1 27.4 0.00 0.00 0.00 81 1004.3
20260505081534 21 183 14.5 27.4 0.00 0.00 0.00 80 1004.2
20260505081007 21 160 17.7 29.0 0.00 0.00 0.00 80 1004.0
20260505080507 21 181 17.7 29.0 0.00 0.00 0.00 79 1004.0
20260505080042 21 176 12.9 29.0 0.00 0.00 0.00 79 1004.2
20260505075509 21 176 12.9 27.4 0.00 0.00 0.00 78 1004.1
20260505075008 21 197 16.1 32.2 0.00 0.00 0.00 78 1004.0
20260505074514 21 196 17.7 32.2 0.00 0.00 0.00 78 1004.1
20260505074008 21 202 17.7 30.6 0.00 0.00 0.00 78 1004.2
20260505073509 21 185 12.9 33.8 0.00 0.00 0.00 77 1004.3
20260505073022 21 169 19.3 33.8 0.00 0.00 0.00 78 1004.4
20260505072507 21 190 17.7 37.0 0.00 0.00 0.00 77 1004.5
20260505072008 21 179 19.3 37.0 0.00 0.00 0.00 77 1004.5
20260505071518 22 210 22.5 35.4 0.00 0.00 0.00 76 1004.7
20260505071006 22 199 20.9 32.2 0.00 0.00 0.00 76 1004.7
20260505070511 22 210 17.7 33.8 0.00 0.00 0.00 76 1004.9
20260505070026 22 175 17.7 33.8 0.00 0.00 0.00 76 1004.9
20260505065507 22 149 17.7 30.6 0.00 0.00 0.00 76 1005.0
20260505065011 22 167 16.1 30.6 0.00 0.00 0.00 75 1005.1
20260505064523 22 209 16.1 32.2 0.00 0.00 0.00 75 1005.2
20260505064013 22 170 17.7 35.4 0.00 0.00 0.00 75 1005.3
20260505063511 22 180 19.3 35.4 0.00 0.00 0.00 75 1005.3
20260505063023 22 198 14.5 30.6 0.00 0.00 0.00 75 1005.3
20260505062512 22 189 16.1 27.4 0.00 0.00 0.00 75 1005.4
20260505062012 22 196 16.1 29.0 0.00 0.00 0.00 75 1005.4
20260505061520 22 195 17.7 29.0 0.00 0.00 0.00 74 1005.5
20260505061006 22 177 17.7 33.8 0.00 0.00 0.00 74 1005.5
20260505060510 22 192 19.3 30.6 0.00 0.00 0.00 74 1005.5
20260505060024 22 185 19.3 30.6 0.00 0.00 0.00 73 1005.5
20260505055513 22 201 16.1 29.0 0.00 0.00 0.00 73 1005.6
20260505055013 22 204 19.3 30.6 0.00 0.00 0.00 73 1005.6
20260505054526 23 175 19.3 32.2 0.00 0.00 0.00 72 1005.5
20260505054011 23 195 16.1 32.2 0.00 0.00 0.00 72 1005.4
20260505053511 23 203 19.3 35.4 0.00 0.00 0.00 72 1005.3
20260505053026 23 188 19.3 37.0 0.00 0.00 0.00 71 1005.3
20260505052515 23 171 22.5 41.8 0.00 0.00 0.00 71 1005.3
20260505052013 23 191 17.7 41.8 0.00 0.00 0.00 71 1005.2
20260505051525 23 188 14.5 30.6 0.00 0.00 0.00 70 1005.3
20260505051011 23 205 12.9 33.8 0.00 0.00 0.00 70 1005.3
20260505050513 23 175 16.1 33.8 0.00 0.00 0.00 70 1005.2
20260505041521 23 188 16.1 30.6 0.00 0.00 0.00 70 1005.6
20260505041007 23 144 19.3 33.8 0.00 0.00 0.00 70 1005.6
20260505040503 23 217 14.5 33.8 0.00 0.00 0.00 70 1005.7
20260505040016 23 147 19.3 29.0 0.00 0.00 0.00 70 1005.7
20260505035508 23 200 14.5 29.0 0.00 0.00 0.00 69 1005.6